TimeMDT,TemperatureF,Dew PointF,Humidity,Sea Level PressureIn,VisibilityMPH,Wind Direction,Wind SpeedMPH,Gust SpeedMPH,PrecipitationIn,Events,Conditions,WindDirDegrees,DateUTC
12:53 AM,30.0,28.9,96,30.08,10.0,Calm,Calm,-,N/A,,Clear,0,2012-10-12 06:53:00
1:53 AM,30.2,28.4,93,29.98,10.0,Calm,Calm,-,N/A,,Clear,0,2012-10-12 07:53:00
2:53 AM,28.9,28.0,96,30.02,10.0,Calm,Calm,-,N/A,,Clear,0,2012-10-12 08:53:00
3:53 AM,28.9,28.0,96,30.01,10.0,WNW,5.8,-,N/A,,Clear,300,2012-10-12 09:53:00
4:53 AM,28.9,28.0,96,29.99,10.0,Calm,Calm,-,N/A,,Clear,0,2012-10-12 10:53:00
5:53 AM,28.0,27.0,96,29.99,6.0,SSW,5.8,-,N/A,,Clear,210,2012-10-12 11:53:00
6:53 AM,28.9,27.0,92,29.99,10.0,Calm,Calm,-,N/A,,Clear,0,2012-10-12 12:53:00
7:53 AM,28.9,27.0,92,29.98,10.0,Calm,Calm,-,N/A,,Clear,0,2012-10-12 13:53:00
8:53 AM,36.0,33.1,89,29.96,9.0,Calm,Calm,-,N/A,,Clear,0,2012-10-12 14:53:00
9:53 AM,42.8,35.6,76,29.89,10.0,Calm,Calm,-,N/A,,Clear,0,2012-10-12 15:53:00
10:53 AM,48.2,37.4,66,29.87,10.0,Calm,Calm,-,N/A,,Clear,0,2012-10-12 16:53:00
11:53 AM,55.9,37.0,49,29.86,10.0,Calm,Calm,-,N/A,,Clear,0,2012-10-12 17:53:00
12:53 PM,62.1,37.9,41,29.82,10.0,Calm,Calm,-,N/A,,Clear,0,2012-10-12 18:53:00
1:53 PM,69.1,37.9,32,29.76,10.0,Calm,Calm,-,N/A,,Clear,0,2012-10-12 19:53:00
2:53 PM,75.9,37.9,25,29.73,10.0,NNW,5.8,-,N/A,,Clear,340,2012-10-12 20:53:00
3:53 PM,78.8,33.8,20,29.74,10.0,Variable,4.6,-,N/A,,Clear,0,2012-10-12 21:53:00
4:53 PM,75.9,35.1,23,29.70,10.0,NNW,4.6,-,N/A,,Clear,330,2012-10-12 22:53:00
5:53 PM,70.0,39.0,32,29.72,10.0,North,3.5,-,N/A,,Clear,10,2012-10-12 23:53:00
6:53 PM,57.9,39.9,51,29.75,10.0,South,4.6,-,N/A,,Clear,170,2012-10-13 00:53:00
7:53 PM,50.0,39.2,66,29.74,10.0,South,5.8,-,N/A,,Clear,180,2012-10-13 01:53:00
8:53 PM,48.0,37.9,68,29.77,10.0,Calm,Calm,-,N/A,,Clear,0,2012-10-13 02:53:00
9:53 PM,48.0,37.9,68,29.77,10.0,Calm,Calm,-,N/A,,Clear,0,2012-10-13 03:53:00
10:53 PM,44.1,37.0,76,29.78,10.0,Calm,Calm,-,N/A,,Clear,0,2012-10-13 04:53:00
11:53 PM,46.9,37.0,68,29.75,10.0,South,5.8,-,N/A,,Clear,190,2012-10-13 05:53:00